Regional Weather Roundup
Issued by NWS

Home | Current Version | Previous Version | Text Only | Print | Product List | Glossary Off
Versions: 1 2 3 4 5 6 7 8 9 10 11 12 13 14 15 16 17 18 19 20 21 22 23 24 25 26 27 28 29 30 31 32 33 34 35 36 37 38 39 40 41 42 43 44 45 46 47 48 49 50

000
ASUS43 KDTX 291810
RWRMI
MICHIGAN HOURLY REGIONAL WEATHER ROUNDUP
NATIONAL WEATHER SERVICE DETROIT/PONTIAC MI
200 PM EDT SAT APR 29 2017

NOTE: "FAIR" INDICATES FEW OR NO CLOUDS BELOW 12,000 FEET WITH NO
SIGNIFICANT WEATHER AND/OR OBSTRUCTION TO VISIBILITY.

MIZ047>049-052>055-059>063-066>070-074>076-081>083-291900-
SOUTHEAST LOWER MICHIGAN

CITY           SKY/WX    TMP DP  RH WIND       PRES   REMARKS
ADRIAN         CLOUDY    46  42  86 E10       30.21S
6HR MIN TEMP:  46; 6HR MAX TEMP:  52;

ALMA           CLOUDY    53  34  48 E8        30.22F
ANN ARBOR      CLOUDY    48  38  68 E6        30.22R
BAD AXE        CLOUDY    44  32  60 NE10      30.27S
6HR MIN TEMP:  40; 6HR MAX TEMP:  45;

CARO           CLOUDY    50  35  56 NE5       30.24F
DETROIT CITY   CLOUDY    45  36  70 E9        30.24R
6HR MIN TEMP:  43; 6HR MAX TEMP:  47;

DETROIT        CLOUDY    48  36  63 E9        30.23S
6HR MIN TEMP:  46; 6HR MAX TEMP:  48;

FLINT          PTSUNNY   53  37  54 MISG      30.22S
6HR MIN TEMP:  45; 6HR MAX TEMP:  53;

GROSSE ILE     LGT RAIN  44  39  85 NE10G16   30.22F
6HR MIN TEMP:  42; 6HR MAX TEMP:  46; 6HR PCP:  0.05;

HILLSDALE      LGT RAIN  46  43  87 E9        30.18F
HOWELL         CLOUDY    50  36  59 E3        30.21S
6HR MIN TEMP:  44; 6HR MAX TEMP:  50;


CITY           SKY/WX    TMP DP  RH WIND       PRES   REMARKS
JACKSON        CLOUDY    50  39  66 NE8       30.20S
6HR MIN TEMP:  46; 6HR MAX TEMP:  50;

LAMBERTVILLE   CLOUDY    43  41  93 NE6       30.22R
6HR MIN TEMP:  43; 6HR MAX TEMP:  54;

LANSING        CLOUDY    54  39  57 NE8       30.22S
6HR MIN TEMP:  46; 6HR MAX TEMP:  54;

LAPEER         FAIR      51  35  53 E7        30.23F
6HR MIN TEMP:  43; 6HR MAX TEMP:  51;

MASON          CLOUDY    50  40  68 NE8       30.21S
MONROE         RAIN      44  40  87 NE7       30.22S
6HR MIN TEMP:  44; 6HR MAX TEMP:  47; 6HR PCP:  0.04;

MT. CLEMENS    CLOUDY    44  36  72 NE10      30.24R
6HR MIN TEMP:  43; 6HR MAX TEMP:  46;

PONTIAC        CLOUDY    48  35  60 NE8       30.22R
6HR MIN TEMP:  44; 6HR MAX TEMP:  48;

PORT HOPE        N/A     42  34  73 N13       30.27R
6HR MIN TEMP:  41; 6HR MAX TEMP:  43;

PORT HURON     CLOUDY    39  30  70 NE10      30.27R WCI  32
TRI CITIES     CLOUDY    52  36  54 NE9       30.24F
6HR MIN TEMP:  44; 6HR MAX TEMP:  52;

MIDLAND        FAIR      55  31  40 N6        30.22F
6HR MIN TEMP:  43; 6HR MAX TEMP:  55;

TROY           CLOUDY    48  33  55 NE7       30.25S
SAGINAW HB     CLOUDY    52  30  43 NE12      30.24F
$$
MIZ043>046-050>051-056>058-064>065-071>073-077>080-291900-
SOUTHWEST LOWER MICHIGAN

CITY           SKY/WX    TMP DP  RH WIND       PRES   REMARKS
BATTLE CREEK   CLOUDY    52  42  69 E8        30.20R
6HR MIN TEMP:  47; 6HR MAX TEMP:  53;

BENTON HARBOR  LGT RAIN  54  41  61 NE12      30.17S
6HR MIN TEMP:  47; 6HR MAX TEMP:  55; 6HR PCP: TRACE;

BIG RAPIDS     CLOUDY    50  29  43 NE7       30.22S
6HR MIN TEMP:  39; 6HR MAX TEMP:  51;

COLDWATER      RAIN      49  46  88 E6        30.18S
6HR MIN TEMP:  47; 6HR MAX TEMP:  51;

FREMONT        FAIR      52  28  38 E9        30.22R
HOLLAND        CLOUDY    54  38  54 E9        30.20R
6HR MIN TEMP:  46; 6HR MAX TEMP:  54;

GRAND RAPIDS   CLOUDY    54  38  54 E10G18    30.21R
6HR MIN TEMP:  45; 6HR MAX TEMP:  55;

IONIA          FAIR      54  36  50 E13       30.21S
6HR MIN TEMP:  44; 6HR MAX TEMP:  54;

KALAMAZOO      CLOUDY    53  37  54 E8        30.19F
6HR MIN TEMP:  47; 6HR MAX TEMP:  54;

LUDINGTON      CLOUDY    45  33  65 N10G16    30.24R
6HR MIN TEMP:  38; 6HR MAX TEMP:  47;

MARSHALL       CLOUDY    50  41  69 E8        30.20R
6HR MIN TEMP:  46; 6HR MAX TEMP:  51;

MOUNT PLEASANT CLOUDY    53  31  42 N10       30.21F
6HR MIN TEMP:  42; 6HR MAX TEMP:  53;

MUSKEGON       CLOUDY    55  31  39 E9        30.22R
6HR MIN TEMP:  46; 6HR MAX TEMP:  57;

SOUTH HAVEN    CLOUDY    53  39  60 E8        30.18S
$$
MIZ016>042-291900-
NORTHERN LOWER MICHIGAN

CITY           SKY/WX    TMP DP  RH WIND       PRES   REMARKS
ALPENA         MOSUNNY   49  30  48 N14       30.27R
6HR MIN TEMP:  37; 6HR MAX TEMP:  50;

BEAVER ISLAND  CLOUDY    49  26  40 NW8G21    30.30R
BELLAIRE       CLOUDY    46  28  49 N5        30.28F
6HR MIN TEMP:  36; 6HR MAX TEMP:  46;

CADILLAC       CLOUDY    47  29  48 NE8       30.22F
CHARLEVOIX     MOSUNNY   41  29  62 NW8       30.33S
6HR MIN TEMP:  37; 6HR MAX TEMP:  41;

FRANKFORT      CLOUDY    43  28  57 N10G17    30.28F
GAYLORD        CLOUDY    49  25  39 NE8       30.24R
6HR MIN TEMP:  35; 6HR MAX TEMP:  50;

GRAYLING       CLOUDY    50  29  44 NW8       30.24F
HARBOR SPRINGS SUNNY     48  30  49 W7        30.28R
HOUGHTON LAKE  CLOUDY    51  28  41 N8        30.23S
6HR MIN TEMP:  38; 6HR MAX TEMP:  51;

MANISTEE       CLOUDY    48  30  49 NE10      30.25F
OSCODA         CLOUDY    48  34  57 E13       30.24S
6HR MIN TEMP:  41; 6HR MAX TEMP:  51;

PELLSTON       SUNNY     50  27  40 N9        30.28R
ROGERS CITY    SUNNY     45  28  51 NW9       30.30R
TRAVERSE CITY  CLOUDY    44  29  55 N9        30.28S
6HR MIN TEMP:  38; 6HR MAX TEMP:  44;

$$
MIZ007>008-015-291900-
EASTERN UPPER MICHIGAN

CITY           SKY/WX    TMP DP  RH WIND       PRES   REMARKS
KINROSS        SUNNY     43  27  53 N16       30.28R
6HR MIN TEMP:  35; 6HR MAX TEMP:  43;

MACKINAC ISLAN SUNNY     48  28  46 N13       30.27R
6HR MIN TEMP:  36; 6HR MAX TEMP:  48;

NEWBERRY       SUNNY     44  26  50 N14G22    30.30R
6HR MIN TEMP:  33; 6HR MAX TEMP:  45;

S. S. MARIE    SUNNY     44  28  53 W16G23    30.28R
6HR MIN TEMP:  37; 6HR MAX TEMP:  45;

MUNISING         N/A     39  26  59 N16       30.34R WCI  30
6HR MIN TEMP:  37; 6HR MAX TEMP:  40;

$$
MIZ004>006-011>014-085-291900-
CENTRAL UPPER MICHIGAN

CITY           SKY/WX    TMP DP  RH WIND       PRES   REMARKS
MANISTIQUE     SUNNY     48  25  39 N14       30.30S
6HR MIN TEMP:  33; 6HR MAX TEMP:  49;

ESCANABA       SUNNY     48  24  39 NE16      30.31S
6HR MIN TEMP:  34; 6HR MAX TEMP:  48;

MENOMINEE      SUNNY     44  28  53 E15       30.32S
6HR MIN TEMP:  33; 6HR MAX TEMP:  45;

SAWYER-GWINN   SUNNY     41  19  42 NE14      30.33R
$$
MIZ001>003-009>011-084-291900-
WESTERN UPPER MICHIGAN

CITY           SKY/WX    TMP DP  RH WIND       PRES   REMARKS
IRON MOUNTAIN  SUNNY     50  20  30 N14G22    30.28F
6HR MIN TEMP:  30; 6HR MAX TEMP:  50;

HOUGHTON       SUNNY     42  21  43 NW3       30.32S
6HR MIN TEMP:  33; 6HR MAX TEMP:  43;

COPPER HARBOR    N/A     38  27  64 NE9       30.34S WCI  31
6HR MIN TEMP:  37; 6HR MAX TEMP:  40;

IRONWOOD       SUNNY     44  24  45 N13       30.32S
6HR MIN TEMP:  27; 6HR MAX TEMP:  44;

$$

ABBREVIATIONS USED IN REMARKS
   TC - TEMPERATURE IN CELSIUS
  WCI - WIND CHILL INDEX
   HX - HEAT INDEX
  VSB - VISIBILITY





USA.gov is the U.S. government's official web portal to all federal, state and local government web resources and services.